GW6984 Weather Reports


Display with metric or nautical units.
time (UTC)temp
F
wind
direction
speed
MPH
gust
MPH
rain 1hr
in
rain 24hr
in
rain mn
in
humidity
%
barometer
mb
20260504045233 41 105 0.0 0.0 0.00 0.00 0.00 73 1015.8
20260504044731 41 347 1.0 2.0 0.00 0.00 0.00 73 1015.7
20260504044228 41 347 0.0 1.0 0.00 0.00 0.00 73 1015.6
20260504043725 42 156 1.0 1.0 0.00 0.00 0.00 70 1015.8
20260504043222 42 156 0.0 0.0 0.00 0.00 0.00 71 1015.6
20260504042720 42 157 1.0 2.0 0.00 0.00 0.00 71 1015.7
20260504042216 42 31 1.0 1.0 0.00 0.00 0.00 68 1015.5
20260504041712 42 32 0.0 0.0 0.00 0.00 0.00 69 1015.4
20260504041208 42 32 0.0 0.0 0.00 0.00 0.00 65 1015.5
20260504040705 43 32 0.0 0.0 0.00 0.00 0.00 69 1015.4
20260504040202 44 357 1.0 1.0 0.00 0.00 0.00 65 1015.3
20260504035658 44 355 2.0 2.0 0.00 0.00 0.00 65 1015.4
20260504035155 44 358 2.0 2.0 0.00 0.00 0.00 65 1015.3
20260504034653 43 0 2.0 2.0 0.00 0.00 0.00 66 1015.3
20260504034149 43 11 0.0 0.0 0.00 0.00 0.00 68 1015.4
20260504033647 42 11 0.0 0.0 0.00 0.00 0.00 69 1015.4
20260504033144 43 11 0.0 0.0 0.00 0.00 0.00 69 1015.4
20260504032641 43 11 0.0 0.0 0.00 0.00 0.00 68 1015.0
20260504032138 43 11 0.0 0.0 0.00 0.00 0.00 68 1015.2
20260504031635 43 11 0.0 0.0 0.00 0.00 0.00 67 1015.0
20260504031132 44 11 0.0 0.0 0.00 0.00 0.00 65 1015.0
20260504030628 44 11 0.0 0.0 0.00 0.00 0.00 65 1015.0
20260504030125 44 11 0.0 0.0 0.00 0.00 0.00 65 1015.1
20260504025622 44 12 0.0 0.0 0.00 0.00 0.00 62 1015.2
20260504025119 44 12 0.0 0.0 0.00 0.00 0.00 62 1015.0
20260504024616 45 12 0.0 0.0 0.00 0.00 0.00 60 1015.0
20260504024113 45 12 0.0 0.0 0.00 0.00 0.00 60 1014.9
20260504023609 46 11 1.0 1.0 0.00 0.00 0.00 59 1014.9
20260504023105 46 11 1.0 1.0 0.00 0.00 0.00 59 1014.9
20260504022602 46 11 1.0 1.0 0.00 0.00 0.00 58 1015.0
20260504022058 46 12 0.0 0.0 0.00 0.00 0.00 58 1015.0
20260504021555 46 12 1.0 1.0 0.00 0.00 0.00 56 1015.0
20260504021052 46 14 1.0 2.0 0.00 0.00 0.00 56 1014.8
20260504020549 46 19 1.0 2.0 0.00 0.00 0.00 56 1015.1
20260504020045 47 27 1.0 1.0 0.00 0.00 0.00 56 1015.1
20260504015542 47 29 0.0 0.0 0.00 0.00 0.00 54 1015.1
20260504015038 47 29 0.0 1.0 0.00 0.00 0.00 53 1015.1
20260504014534 47 29 0.0 1.0 0.00 0.00 0.00 54 1014.9
20260504014031 48 29 1.0 1.0 0.00 0.00 0.00 52 1015.0
20260504013529 48 30 1.0 1.0 0.00 0.00 0.00 51 1014.9
20260504013026 48 30 1.0 1.0 0.00 0.00 0.00 51 1014.9
20260504012524 48 39 1.0 1.0 0.00 0.00 0.00 52 1014.8
20260504012021 48 78 1.0 1.0 0.00 0.00 0.00 51 1014.8
20260504011518 49 149 1.0 1.0 0.00 0.00 0.00 50 1014.8
20260504011014 50 149 1.0 1.0 0.00 0.00 0.00 48 1014.7
20260504010509 50 149 0.0 0.0 0.00 0.00 0.00 47 1014.8
20260504010005 50 149 1.0 1.0 0.00 0.00 0.00 45 1014.5
20260504005502 50 149 1.0 1.0 0.00 0.00 0.00 45 1014.5
20260504005000 50 148 1.0 1.0 0.00 0.00 0.00 48 1014.4
20260504004458 51 147 0.0 1.0 0.00 0.00 0.00 48 1014.5
20260504003954 51 147 0.0 1.0 0.00 0.00 0.00 46 1014.5
20260504003450 52 146 0.0 0.0 0.00 0.00 0.00 43 1014.3
20260504002947 53 146 0.0 0.0 0.00 0.00 0.00 40 1014.3
20260504002444 53 146 0.0 0.0 0.00 0.00 0.00 39 1014.3
20260504001942 53 147 0.0 0.0 0.00 0.00 0.00 39 1014.2
20260504001439 53 146 0.0 0.0 0.00 0.00 0.00 40 1014.4
20260504000936 54 146 0.0 0.0 0.00 0.00 0.00 39 1014.2
20260504000433 55 146 0.0 0.0 0.00 0.00 0.00 39 1014.2
20260503235930 55 146 0.0 0.0 0.00 0.00 0.00 37 1014.1
20260503235428 55 146 0.0 0.0 0.00 0.00 0.00 36 1014.0
20260503234925 55 122 0.0 1.0 0.00 0.00 0.00 37 1014.0
20260503234422 56 31 0.0 0.0 0.00 0.00 0.00 37 1013.9
20260503233920 56 31 0.0 0.0 0.00 0.00 0.00 36 1013.7
20260503233417 57 32 1.0 1.0 0.00 0.00 0.00 35 1013.7
20260503232913 57 33 0.0 1.0 0.00 0.00 0.00 35 1013.7
20260503232410 58 47 0.0 0.0 0.00 0.00 0.00 34 1013.7
20260503231908 58 23 0.0 2.0 0.00 0.00 0.00 32 1013.6
20260503231405 58 41 2.0 1.0 0.00 0.00 0.00 33 1013.7
20260503230901 58 244 1.0 3.0 0.00 0.00 0.00 32 1013.8
20260503230358 58 21 0.0 2.0 0.00 0.00 0.00 31 1013.6
20260503225856 59 356 1.0 3.0 0.00 0.00 0.00 32 1013.7
20260503225351 59 8 1.0 3.0 0.00 0.00 0.00 31 1013.7
20260503224848 59 331 2.0 7.0 0.00 0.00 0.00 30 1013.9
20260503224345 59 9 2.0 4.0 0.00 0.00 0.00 31 1013.8
20260503223843 59 3 0.0 1.0 0.00 0.00 0.00 33 1013.8
20260503223340 59 229 1.0 6.0 0.00 0.00 0.00 32 1013.6
20260503222836 59 292 5.0 6.0 0.00 0.00 0.00 29 1013.7
20260503222335 60 272 5.0 7.0 0.00 0.00 0.00 29 1013.5
20260503221832 60 356 3.0 6.0 0.00 0.00 0.00 30 1013.6
20260503221331 60 9 3.0 4.0 0.00 0.00 0.00 31 1013.7
20260503220826 60 329 3.0 3.0 0.00 0.00 0.00 30 1013.8
20260503220323 60 12 6.0 11.0 0.00 0.00 0.00 29 1013.7
20260503215820 60 229 6.0 9.0 0.00 0.00 0.00 29 1013.6
20260503215317 60 352 3.0 3.0 0.00 0.00 0.00 33 1013.6
20260503214815 61 330 4.0 9.0 0.00 0.00 0.00 28 1013.6
20260503214312 62 316 3.0 6.0 0.00 0.00 0.00 29 1013.7
20260503213810 62 352 4.0 8.0 0.00 0.00 0.00 29 1013.8
20260503213307 62 187 4.0 6.0 0.00 0.00 0.00 29 1013.9
20260503212804 62 156 3.0 6.0 0.00 0.00 0.00 30 1013.7
20260503212302 62 100 3.0 4.0 0.00 0.00 0.00 27 1013.5
20260503211759 62 32 0.0 3.0 0.00 0.00 0.00 29 1013.7
20260503211255 62 350 2.0 4.0 0.00 0.00 0.00 27 1013.5
20260503210755 62 71 2.0 3.0 0.00 0.00 0.00 28 1013.7
20260503210253 62 172 0.0 2.0 0.00 0.00 0.00 29 1013.6
20260503205748 62 56 3.0 6.0 0.00 0.00 0.00 28 1013.6
20260503205245 62 337 3.0 4.0 0.00 0.00 0.00 29 1013.8
20260503204741 62 161 2.0 6.0 0.00 0.00 0.00 28 1013.7
20260503204239 61 168 2.0 4.0 0.00 0.00 0.00 28 1013.6
20260503203736 61 335 6.0 9.0 0.00 0.00 0.00 26 1013.8
20260503203234 60 244 3.0 7.0 0.00 0.00 0.00 30 1013.8
20260503202731 61 347 5.0 10.0 0.00 0.00 0.00 29 1013.9
20260503202228 61 346 4.0 7.0 0.00 0.00 0.00 30 1014.0
20260503201726 61 158 3.0 7.0 0.00 0.00 0.00 30 1014.1
20260503201223 61 244 3.0 9.0 0.00 0.00 0.00 28 1013.8
20260503200719 61 344 4.0 7.0 0.00 0.00 0.00 31 1014.3
20260503200216 60 271 2.0 3.0 0.00 0.00 0.00 32 1014.0
20260503195713 59 268 2.0 4.0 0.00 0.00 0.00 33 1014.0
20260503195210 60 319 6.0 9.0 0.00 0.00 0.00 31 1014.2
20260503194707 60 270 3.0 6.0 0.00 0.00 0.00 31 1014.2
20260503194203 59 208 2.0 4.0 0.00 0.00 0.00 33 1014.4
20260503193659 59 301 4.0 6.0 0.00 0.00 0.00 34 1014.5
20260503193155 61 358 4.0 4.0 0.00 0.00 0.00 32 1014.5
20260503192651 60 275 6.0 8.0 0.00 0.00 0.00 32 1014.6
20260503192146 59 220 2.0 7.0 0.00 0.00 0.00 35 1014.6
20260503191643 59 331 2.0 4.0 0.00 0.00 0.00 32 1014.6
20260503191141 60 5 2.0 4.0 0.00 0.00 0.00 35 1014.5
20260503190637 60 259 3.0 8.0 0.00 0.00 0.00 30 1014.6
20260503190134 60 205 3.0 10.0 0.00 0.00 0.00 30 1014.7
20260503185631 59 236 2.0 9.0 0.00 0.00 0.00 34 1014.7
20260503185126 58 317 3.0 8.0 0.00 0.00 0.00 34 1015.0
20260503184621 59 335 3.0 7.0 0.00 0.00 0.00 32 1014.8
20260503184118 60 319 6.0 13.0 0.00 0.00 0.00 31 1014.9
20260503183615 59 160 3.0 4.0 0.00 0.00 0.00 31 1015.0
20260503183112 59 297 4.0 6.0 0.00 0.00 0.00 35 1015.2
20260503182610 57 299 6.0 8.0 0.00 0.00 0.00 34 1015.1
20260503182108 59 149 1.0 6.0 0.00 0.00 0.00 31 1015.1
20260503181605 59 221 2.0 9.0 0.00 0.00 0.00 35 1015.0
20260503181101 58 217 2.0 6.0 0.00 0.00 0.00 33 1015.2
20260503180559 59 333 4.0 9.0 0.00 0.00 0.00 34 1015.2
20260503180056 58 193 5.0 8.0 0.00 0.00 0.00 32 1015.2
20260503175553 57 172 6.0 9.0 0.00 0.00 0.00 33 1015.3
20260503175050 58 142 2.0 2.0 0.00 0.00 0.00 33 1015.3
20260503174547 57 321 7.0 11.0 0.00 0.00 0.00 31 1015.2
20260503174044 57 2 5.0 8.0 0.00 0.00 0.00 34 1015.1
20260503173539 57 51 6.0 11.0 0.00 0.00 0.00 32 1015.2
20260503173035 57 349 3.0 9.0 0.00 0.00 0.00 33 1015.3
20260503172533 57 117 3.0 7.0 0.00 0.00 0.00 31 1015.4
20260503172030 57 277 5.0 9.0 0.00 0.00 0.00 30 1015.7
20260503171526 55 184 3.0 8.0 0.00 0.00 0.00 35 1015.7
20260503171024 56 200 6.0 11.0 0.00 0.00 0.00 33 1015.6
20260503170520 55 335 7.0 8.0 0.00 0.00 0.00 36 1015.5
20260503150912 52 250 3.0 4.0 0.00 0.00 0.00 39 1015.8
20260503150409 51 350 4.0 9.0 0.00 0.00 0.00 38 1016.1
20260503131302 47 325 7.0 13.0 0.00 0.00 0.00 46 1016.3
20260503130759 47 327 6.0 11.0 0.00 0.00 0.00 48 1016.1
20260503130257 47 336 4.0 14.0 0.00 0.00 0.00 48 1016.1
20260503110650 41 309 2.0 7.0 0.00 0.00 0.00 63 1015.2
20260503110148 41 51 2.0 6.0 0.00 0.00 0.00 65 1015.2
20260503100114 39 331 2.0 3.0 0.00 0.00 0.00 67 1014.3
20260503081504 41 339 2.0 3.0 0.00 0.00 0.00 67 1013.4
20260503081001 41 343 2.0 3.0 0.00 0.00 0.00 66 1013.4
20260503080457 41 325 2.0 4.0 0.00 0.00 0.00 65 1013.3
20260503072933 42 272 2.0 6.0 0.00 0.00 0.00 63 1013.1
20260503072431 42 333 3.0 4.0 0.00 0.00 0.00 63 1013.0
20260503071928 42 203 3.0 4.0 0.00 0.00 0.00 63 1012.9
20260503071425 42 243 1.0 4.0 0.00 0.00 0.00 63 1013.0
20260503070921 42 350 3.0 3.0 0.00 0.00 0.00 63 1012.8
20260503070418 42 323 2.0 3.0 0.00 0.00 0.00 64 1012.8
20260503054832 43 337 4.0 4.0 0.00 0.00 0.00 64 1013.0
20260503054327 43 295 2.0 4.0 0.00 0.00 0.00 64 1013.1
20260503053825 43 304 2.0 6.0 0.00 0.00 0.00 64 1013.1
20260503053324 43 352 2.0 7.0 0.00 0.00 0.00 64 1013.2
20260503052820 43 355 1.0 3.0 0.00 0.00 0.00 65 1013.0
20260503052317 43 342 3.0 3.0 0.00 0.00 0.00 65 1013.0
20260503051812 43 349 2.0 2.0 0.00 0.00 0.00 66 1012.9
20260503051309 43 9 1.0 3.0 0.00 0.00 0.00 65 1012.8
20260503050806 44 333 0.0 1.0 0.00 0.00 0.00 64 1013.1
20260503050302 44 351 1.0 2.0 0.00 0.00 0.00 62 1013.2
20260503045800 44 319 1.0 3.0 0.00 0.00 0.00 61 1012.9